Regional Weather Roundup
Issued by NWS Upton, NY

Home | Current Version | Previous Version | Text Only | Print | Product List | Glossary On
Versions: 1 2 3 4 5 6 7 8 9 10 11 12 13 14 15 16 17 18 19 20 21 22 23 24 25 26 27 28 29 30 31 32 33 34 35 36 37 38 39 40 41 42 43 44 45 46 47 48 49 50
000
ASUS41 KOKX 190905
RWROKX

REGIONAL WEATHER ROUNDUP
NATIONAL WEATHER SERVICE NEW YORK NY
400 AM EST FRI DEC 19 2014

NOTE: "FAIR" INDICATES FEW OR NO CLOUDS BELOW 12,000 FEET WITH NO
SIGNIFICANT WEATHER AND/OR OBSTRUCTIONS TO VISIBILITY.

NYZ071-072-176-178-NJZ106-104-191000-
NEW YORK CITY METRO AREA


CITY           SKY/WX    TMP DP  RH WIND       PRES   REMARKS
CENTRAL PARK   CLEAR     36  23  59 NW7G16    29.99S WCI  30
LAGUARDIA APRT PTCLDY    37  25  61 NW13      29.97S WCI  29
KENNEDY INTL   PTCLDY    38  23  55 NW17G24   29.99R WCI  28
NEWARK/LIBERTY MOCLDY    37  25  61 NW16G22   29.98F WCI  28
BRNX BOT. GARD   N/A    N/A N/A N/A NW3       29.97F
TETERBORO      MOCLDY    36  24  62 NW9       29.97S WCI  29
$$

NYZ177-179-078>081-191000-
LONG ISLAND NEW YORK

CITY           SKY/WX    TMP DP  RH WIND       PRES   REMARKS
FARMINGDALE    MOCLDY    36  25  64 NW6       29.96S WCI  31
ISLIP          CLOUDY    36  26  67 W7        29.93F WCI  30
SHIRLEY        CLOUDY    36  26  67 W5        29.95F WCI  32
WESTHAMPTON    CLOUDY    33  27  78 W5        29.95F WCI  29
MONTAUK POINT    N/A     38  27  64 NW14      29.92F WCI  30
$$

NYZ052-065-067-191000-
HUDSON VALLEY

CITY           SKY/WX    TMP DP  RH WIND       PRES   REMARKS
WHITE PLAINS   MOCLDY    35  24  64 NW15G22   29.93S WCI  25
NEWBURGH       CLOUDY    34  25  69 NW9       29.96S WCI  26
MONTGOMERY     CLOUDY    35  23  61 NW9       29.94F WCI  28
POUGHKEEPSIE   CLOUDY    36  25  64 W5        29.95S WCI  32
ALBANY         CLOUDY    32  21  64 NW12      29.96S WCI  23
$$

NJZ001-105-106-008-010-013-015-019>022-104-191000-
NEW JERSEY

CITY           SKY/WX    TMP DP  RH WIND       PRES   REMARKS
NEWARK/LIBERTY MOCLDY    37  25  61 NW16G22   29.98F WCI  28
TETERBORO      MOCLDY    36  24  62 NW9       29.97S WCI  29
CALDWELL       CLOUDY    36  24  62 NW9G23    29.98S WCI  29
MORRISTOWN       N/A     39  25  56 NW7       29.98F WCI  34
SOMERVILLE     CLOUDY    38  23  55 NW9       29.98F WCI  31
SUSSEX         CLOUDY    35  23  61 NW9       29.97S WCI  28
ANDOVER          N/A     34  24  67 N3        29.97S
TRENTON        CLOUDY    36  25  64 W6        30.00F WCI  31
MILLVILLE      CLOUDY    35  26  69 W8        30.05S WCI  29
ATLANTIC CITY  MOCLDY    34  25  69 W10       30.03S WCI  26
WRIGHTSTOWN    CLOUDY    36  26  67 W8        29.99S WCI  29
TOMS RIVER     PTCLDY    32  25  74 CALM      29.99F
BELMAR         PTCLDY    34  21  60 W7        29.99S WCI  28
$$

PAZ047>061-062-071-191000-
EASTERN PENNSYLVANIA

CITY           SKY/WX    TMP DP  RH WIND       PRES   REMARKS
PHILADELPHIA   CLOUDY    37  25  61 W9        30.05S WCI  30
ALLENTOWN      CLOUDY    36  23  59 NW7       30.01S WCI  30
SCRANTON       FLURRIES  33  26  75 NW13      29.97F WCI  24
$$

CTZ002-004>006-009-010-012-RIZ004-006-007-MAZ004-011-015-191000-
SOUTHERN NEW ENGLAND
 IN CT

CITY           SKY/WX    TMP DP  RH WIND       PRES   REMARKS
BRADLEY INTL   CLOUDY    35  22  58 NW12      29.92R WCI  27
HARTFORD       CLOUDY    36  23  59 NW8G21    29.94S WCI  30
DANBURY        CLOUDY    34  23  64 NW5       29.94F WCI  30
WTRBRY/OXFORD  CLOUDY    34  21  60 CALM      29.92F
BRIDGEPORT     CLOUDY    37  27  67 W5        29.94F WCI  33
MERIDEN          N/A     36  23  59 N13       29.94S WCI  27
NEW HAVEN      CLOUDY    39  27  62 NW6       29.94S WCI  35
CHESTER        PTSUNNY   34  27  75 NW13      29.92S WCI  25
GROTON         CLOUDY    35  26  69 NW9       29.91F WCI  28
WILLIMANTIC    CLOUDY    35  24  64 W9        29.91S WCI  28

 IN RI

CITY           SKY/WX    TMP DP  RH WIND       PRES   REMARKS
PROVIDENCE     CLOUDY    35  25  66 W8        29.89F WCI  29
BLOCK ISLAND   CLOUDY    37  25  60 NW10G16   29.90S WCI  30
WESTERLY       CLOUDY    35  26  69 NW7       29.91F WCI  29

 IN MA

CITY           SKY/WX    TMP DP  RH WIND       PRES   REMARKS
BOSTON         MOCLDY    35  24  64 W10       29.87S WCI  27
WORCESTER      CLOUDY    30  24  78 W10       29.85S WCI  21
WESTFIELD      CLOUDY    34  22  61 NW10      29.92R WCI  26
PROVINCETOWN   CLOUDY    37  27  65 NW17G23   29.86R WCI  28
NANTUCKET      CLOUDY    38  28  67 NW12      29.87S WCI  30
$$

ANZ330-335-338-340-345-350-353-355-191000-
COASTAL MARINE OBSERVATIONS


STATION/POSITION TIME  SKY/WX   TEMP    WIND        PRES    VSBY  WAVE
                                AIR SEA DIR/SP/G                  HT/PER
                 (UTC)          (F)     (DEG/KT/KT) (MB)    (MI)  (FT/S)
NY HARB ENTRANCE 0900            40 47  310/ 19/ 23 1014.9          2/ 4
4S FIRE IS       0900               47                N/A           2/ 4
20S FIRE ISLAND  0800            41 49              1014.8          3/ 5
23SW MTP         0900                                 N/A           3/ 5
HUDSON CANYON    0900            42 55  310/ 17/ 19 1013.9          5/ 6
EXECUTION ROCKS  0900            38 42  310/ 10/ 14   N/A
WESTERN LI SOUND 0900            38     310/ 12/ 16   N/A           0
CENTRAL LI SOUND 0800            38 45  300/ 12/ 16   N/A           2/ 4
EASTERN LI SOUND NOT AVBL
ROBBINS REEF     0900            37     150/  6/ 12 1014.0
$$


>>>>>>>>>>>>>>>>>>>>>>>>>>>> KEY <<<<<<<<<<<<<<<<<<<<<<<<<<<
>                                                          <
>     SKY/WX - SKY CONDITION/PRESENT WEATHER               <
>     TMP    - TEMPERATURE IN FAHRENHEIT                   <
>     DP     - DEWPOINT IN FAHRENHEIT                      <
>     RH     - RELATIVE HUMIDITY IN PERCENT                <
>     WIND   - DIRECTION AND SPEED IN MPH                  <
>     PRES   - MEAN SEA LEVEL PRESSURE IN INCHES OF HG     <
>     WCI    - WIND CHILL INDEX                            <
>     VSB    - VISIBILITY IN MILES                         <
>     HX     - HEAT INDEX                                  <
>     TC     - TEMPERATURE IN CELSIUS                      <
>     VRB    - VARIABLE WIND DIRECTION                     <
>                                                          <
>>>>>>>>>>>>>>>>>>>>>>>>>>>> KEY <<<<<<<<<<<<<<<<<<<<<<<<<<<




USA.gov is the U.S. government's official web portal to all federal, state and local government web resources and services.